SES-15

Last updated on Wed Mar 11 2026 00:02:54 GMT+0000 (Coordinated Universal Time)

1 42709U 17026A 26069.47816096 .00000062 00000+0 00000+0 0 9998 2 42709 0.0338 335.2940 0000776 31.7086 204.0980 1.00269508 6447
UTC large
Height (km)
Speed (km/s)
/
Latitude / Longitude
Inclination (degrees)
Orbital Period (minutes)
Azimuth
Elevation
Range (km)
Doppler Factor

Next 0 passes for location: London (51.5072 / 0.1276)

Sorry there are no passes over London.